Buffalo, NY

7:59 PM EDT on June 21, 2018 (GMT -0400)
Buffalo Niagara International

Weather History for KBUF - January, 2007

Change the Weather History Date:

Friday, January 12, 2007

  Actual Average Record
Temperature  
Mean Temperature 43 °F 25 °F  
Max Temperature 49 °F 31 °F 61 °F (2005)
Min Temperature 36 °F 19 °F -11 °F (1968)
Degree Days  
Heating Degree Days 22 40  
Month to date heating degree days 306 475  
Since 1 July heating degree days 2405 2890  
Cooling Degree Days 0 0  
Month to date cooling degree days 0 0  
Year to date cooling degree days 0 0  
Moisture  
Dew Point 42 °F    
Average Humidity 63    
Maximum Humidity 93    
Minimum Humidity 33    
Precipitation  
Precipitation 0.35 in 0.10 in 1.10 in (2018)
Month to date precipitation 2.06 1.35  
Year to date precipitation 2.06 1.35  
Snow  
Snow 0.00 in 0.80 in 7.30 in (1909)
Month to date snowfall 0.7 10.7  
Since 1 July snowfall 32.9 46.9  
Snow Depth 0.00 in    
Sea Level Pressure  
Sea Level Pressure 30.13 in    
Wind  
Wind Speed 17 mph (SSW)    
Max Wind Speed 37 mph    
Max Gust Speed 46 mph    
Visibility 6 miles    
Events Rain , Snow    
T = Trace of Precipitation, MM = Missing Value Source: NWS Daily Summary

Daily Weather History Graph

Daily Weather History Graph

Search for Another Location

Airport or City:

Astronomy

Jan. 12, 2007 Rise Set
Actual Time 7:44 AM EST 5:02 PM EST
Civil Twilight 7:13 AM EST 5:33 PM EST
Nautical Twilight 6:37 AM EST 6:08 PM EST
Astronomical Twilight 6:03 AM EST 6:43 PM EST
Moon 1:30 AM EST (1/12) 11:47 AM EST (1/12)
Length of Visible Light 10h 20m
Length of Day
9h 17m
Last Quarter, 39% of the Moon is Illuminated
Jan 12
Last Quarter
Jan 18
New
Jan 25
First Quarter
Feb 2
Full
Feb 10
Last Quarter

Hourly Weather History & Observations

Time (EST) Temp. Windchill Dew Point Humidity Pressure Visibility Wind Dir Wind Speed Gust Speed Precip Events Conditions
12:54 AM 45.0 °F 37.1 °F 19.0 °F 36% 30.09 in 10.0 mi SSW 19.6 mph 26.5 mph N/A   Overcast
3:46 AM 35.6 °F 26.2 °F 35.6 °F 100% 30.13 in 7.0 mi SSW 15.0 mph - 0.06 in Rain , Snow Light Rain
3:54 AM 36.0 °F 27.5 °F 35.1 °F 97% 30.15 in 7.0 mi SSW 12.7 mph - 0.07 in Rain , Snow Light Rain
4:54 AM 37.9 °F 29.2 °F 37.0 °F 97% 30.12 in 6.0 mi SSW 15.0 mph - 0.01 in Rain Light Rain
5:12 AM 39.2 °F 29.6 °F 37.4 °F 93% 30.11 in 7.0 mi SSW 19.6 mph 25.3 mph 0.00 in   Light Drizzle
5:37 AM 39.2 °F 30.5 °F 37.4 °F 93% 30.12 in 10.0 mi SSW 16.1 mph 25.3 mph 0.00 in Rain Light Rain
5:54 AM 39.9 °F 31.1 °F 37.9 °F 93% 30.14 in 8.0 mi SW 17.3 mph 23.0 mph 0.00 in   Light Drizzle
6:54 AM 39.9 °F 31.4 °F 39.0 °F 97% 30.15 in 10.0 mi SW 16.1 mph 26.5 mph 0.01 in   Light Drizzle
7:54 AM 41.0 °F 33.5 °F 39.0 °F 93% 30.16 in 10.0 mi SW 13.8 mph - 0.00 in   Overcast
8:30 AM 41.0 °F 33.9 °F 39.2 °F 93% 30.14 in 8.0 mi SW 12.7 mph - N/A   Overcast
8:54 AM 42.1 °F 34.9 °F 39.9 °F 92% 30.17 in 9.0 mi SW 13.8 mph - N/A   Overcast
9:40 AM 44.6 °F 37.8 °F 39.2 °F 81% 30.16 in 10.0 mi SW 15.0 mph 24.2 mph N/A   Overcast
9:54 AM 44.1 °F 36.5 °F 39.9 °F 85% 30.18 in 10.0 mi SW 17.3 mph - N/A   Overcast
9:57 AM 44.6 °F 36.6 °F 39.2 °F 81% 30.17 in 10.0 mi SW 19.6 mph - N/A   Overcast
10:54 AM 46.0 °F 39.0 °F 39.9 °F 79% 30.18 in 10.0 mi SW 17.3 mph - N/A   Overcast
11:54 AM 46.9 °F - 41.0 °F 80% 30.15 in 10.0 mi SW 20.7 mph 28.8 mph N/A   Overcast
12:54 PM 46.0 °F 38.0 °F 42.1 °F 86% 30.14 in 10.0 mi SW 21.9 mph 32.2 mph 0.00 in   Overcast
1:11 PM 46.4 °F 38.7 °F 42.8 °F 87% 30.12 in 9.0 mi SW 20.7 mph 32.2 mph 0.00 in Rain Light Rain
1:19 PM 46.4 °F 39.2 °F 42.8 °F 87% 30.11 in 9.0 mi SW 18.4 mph 29.9 mph 0.00 in   Overcast
1:54 PM 46.9 °F - 43.0 °F 86% 30.13 in 10.0 mi SW 15.0 mph 25.3 mph 0.00 in   Overcast
2:54 PM 48.0 °F - 43.0 °F 83% 30.12 in 10.0 mi SW 17.3 mph - N/A   Overcast
3:54 PM 46.9 °F - 43.0 °F 86% 30.13 in 7.0 mi SSW 16.1 mph - N/A   Overcast
4:54 PM 46.9 °F - 44.1 °F 90% 30.14 in 6.0 mi SSW 13.8 mph - N/A   Overcast
5:47 PM 46.4 °F 40.1 °F 44.6 °F 93% 30.13 in 5.0 mi SSW 15.0 mph - N/A   Overcast
5:54 PM 46.9 °F - 45.0 °F 93% 30.16 in 5.0 mi SSW 17.3 mph - 0.00 in   Light Drizzle
6:52 PM 46.4 °F 40.4 °F 44.6 °F 93% 30.13 in 2.0 mi SSW 13.8 mph - 0.00 in   Light Drizzle
6:54 PM 46.9 °F - 45.0 °F 93% 30.14 in 2.0 mi SSW 15.0 mph - 0.00 in   Light Drizzle
7:03 PM 46.4 °F 40.4 °F 46.4 °F 100% 30.13 in 1.8 mi SSW 13.8 mph - 0.00 in   Light Drizzle
7:14 PM 46.4 °F 40.1 °F 46.4 °F 100% 30.12 in 2.0 mi SSW 15.0 mph - 0.00 in Rain Light Rain
7:29 PM 46.4 °F 40.4 °F 46.4 °F 100% 30.12 in 3.0 mi SSW 13.8 mph - 0.01 in Rain Light Rain
7:54 PM 46.9 °F - 46.0 °F 97% 30.13 in 5.0 mi SSW 13.8 mph - 0.01 in   Light Drizzle
8:54 PM 46.9 °F - 46.0 °F 97% 30.11 in 5.0 mi SSW 12.7 mph - 0.01 in   Light Drizzle
9:10 PM 48.2 °F - 46.4 °F 93% 30.09 in 2.5 mi SSW 12.7 mph - 0.00 in   Light Drizzle
9:49 PM 46.9 °F - 46.9 °F 100% 30.10 in 1.5 mi SSW 15.0 mph - 0.01 in Rain Light Rain
9:58 PM 46.4 °F 39.2 °F 46.4 °F 100% 30.08 in 2.0 mi SSW 18.4 mph - 0.01 in Rain Light Rain
10:45 PM 48.2 °F - 46.4 °F 93% 30.08 in 2.5 mi SSW 15.0 mph - 0.08 in Rain Light Rain
10:47 PM 48.2 °F - 46.4 °F 93% 30.08 in 3.0 mi SSW 15.0 mph - 0.08 in Rain Light Rain
10:54 PM 48.0 °F - 46.9 °F 96% 30.10 in 3.0 mi SSW 16.1 mph - 0.09 in Rain Light Rain
11:25 PM 48.2 °F - 48.2 °F 100% 30.08 in 5.0 mi SW 15.0 mph - 0.02 in Rain Light Rain
11:54 PM 48.9 °F - 48.0 °F 97% 30.09 in 4.0 mi SSW 16.1 mph - 0.04 in Rain Light Rain